[[{"header":{"parameterUnit":"m.s-1","parameterCategory":1,"la1":30.2991,"la2":30.254,"lo1":-89.0895,"lo2":-89.0444,"dy":0.0017,"dx":0.0017,"nx":28,"ny":28,"refTime":"2025-01-07T03:00:00:Z","depth":0,"parameterNumber":2,"parameterNumberName":"U-component_of_WINDS"},"data":[0,0,0,0,0,0,0,0,0,0,0,0,0,0,0,0,0,0,0,0,0,0,0,0,0,0,0,0,0,0,0,0,0,0,0,0,0,0,0,0,0,0,0,0,0,0,0,0,0,0,0,0,0,0,0,0,0,0,0.7036,0.7036,0,0.7012,0.7012,0.7011,0.7017,0.7018,0.7018,0.7018,0.699,0.6989,0.6988,0,0,0,0,0,0,0,0,0,0,0,0,0,0.7086,0.7085,0.7036,0.7036,0.7036,0.7012,0.7012,0.7011,0.7017,0.7018,0.7018,0.7019,0.6991,0.6989,0.6988,0,0,0,0,0,0,0,0,0,0,0,0,0,0.7063,0.7085,0.7037,0.7036,0.7036,0.7012,0.7012,0.7011,0.7017,0.7018,0.7018,0.7019,0.6991,0.6989,0.6988,0.6962,0,0,0.6982,0.6981,0,0,0,0,0,0,0,0,0.7065,0.7062,0.7036,0.7036,0.7036,0.7018,0.7019,0.6995,0.7017,0.7024,0.7019,0.7019,0.6999,0.6996,0.699,0.6961,0.696,0.6982,0.6981,0.698,0.698,0,0,0,0,0,0,0,0.7066,0.7063,0.7027,0.7036,0.7035,0.7036,0.7034,0.7014,0.7008,0.7023,0.7024,0.7021,0.6999,0.6992,0.699,0.6959,0.6982,0.698,0.6979,0.6979,0.6909,0.6909,0,0,0,0,0,0,0.7069,0.7064,0.7027,0.7026,0.7052,0.7035,0.7032,0.7023,0.7008,0.7006,0.702,0.7021,0.6995,0.6992,0.6989,0.6958,0.698,0.6978,0.6977,0.691,0.6909,0.6908,0,0,0,0,0,0,0.707,0.7065,0.7028,0.7045,0.7041,0.7033,0.7023,0.7022,0.7015,0.7006,0.7004,0.7015,0.6995,0.6991,0.6969,0.6957,0.6978,0.6976,0.6911,0.691,0.6909,0.6897,0,0,0,0,0,0,0.7071,0.7066,0.7056,0.7045,0.704,0.701,0.7022,0.7021,0.7013,0.7014,0.7,0.6998,0.6995,0.6972,0.6968,0.6955,0.6975,0.6912,0.691,0.6909,0.6899,0.6896,0.6893,0,0,0,0,0,0.7073,0.7053,0.7056,0.7051,0.7028,0.7009,0.7006,0.7004,0.7012,0.7002,0.6996,0.6999,0.696,0.697,0.6965,0.6952,0.6913,0.6911,0.6909,0.69,0.6896,0.6893,0,0,0,0,0,0,0.7061,0.7051,0.7054,0.703,0.7021,0.701,0.6998,0.7,0.6987,0.6989,0.6986,0.6983,0.6961,0.6954,0.6965,0.6927,0.6937,0.6934,0.6932,0.6928,0.6926,0.6927,0.6973,0,0,0,0,0,0.7056,0.7043,0.7035,0.7014,0.701,0.7005,0.6996,0.6996,0.6985,0.6981,0.6973,0.6962,0.6948,0.6938,0.6924,0.6898,0.6895,0.6887,0.6885,0.6883,0.688,0.6866,0.6862,0.6903,0.6903,0.6903,0,0,0.7045,0.7038,0.7029,0.7012,0.7004,0.699,0.7001,0.6985,0.6974,0.6978,0.6957,0.6952,0.6939,0.6916,0.6905,0.691,0.6868,0.688,0.6879,0.6877,0.6864,0.686,0.6857,0.6901,0.6902,0.6902,0,0,0.7017,0.7011,0.6993,0.6986,0.6976,0.6973,0.6969,0.6958,0.6955,0.6935,0.6938,0.6925,0.69,0.6891,0.6883,0.6855,0.6857,0.685,0.6836,0.6823,0.682,0.6817,0.6806,0.6803,0.6848,0.6848,0.6848,0,0.7004,0.6983,0.6984,0.6968,0.696,0.6966,0.6948,0.6941,0.6925,0.692,0.6926,0.6895,0.6887,0.6862,0.6855,0.6849,0.6844,0.6851,0.682,0.6818,0.6815,0.6805,0.6801,0.6847,0.6847,0.6847,0.6847,0,0.6968,0.6953,0.6941,0.6927,0.6918,0.6902,0.6899,0.689,0.6891,0.6888,0.6867,0.6858,0.6843,0.6837,0.6837,0.6812,0.6816,0.6821,0.6831,0.681,0.6801,0.6797,0.6846,0.6846,0.6846,0.6847,0,0,0.6929,0.6919,0.6914,0.6908,0.6898,0.6887,0.6871,0.6857,0.6849,0.6839,0.6825,0.6805,0.6811,0.6802,0.6802,0.679,0.6768,0.6797,0.6797,0.6792,0.674,0.6735,0.6731,0.6771,0.677,0.6769,0.6741,0,0.69,0.6873,0.6874,0.6848,0.6834,0.684,0.6826,0.6818,0.6815,0.6803,0.68,0.6786,0.6794,0.6789,0.6778,0.6773,0.6758,0.6776,0.6757,0.6756,0.6758,0.6726,0.672,0.6694,0.6737,0.6737,0.6736,0,0.6862,0.6852,0.6825,0.6818,0.6812,0.68,0.6788,0.6777,0.6768,0.6767,0.6759,0.6761,0.6744,0.6756,0.6733,0.6746,0.6738,0.6735,0.6734,0.6731,0.6744,0.6721,0.6685,0.6681,0.6731,0.6731,0.6731,0,0.6836,0.6816,0.6798,0.6793,0.6784,0.6775,0.6771,0.6764,0.6756,0.6746,0.6741,0.6728,0.6721,0.6712,0.671,0.6719,0.6687,0.6699,0.6685,0.6685,0.6676,0.6677,0.6638,0.6674,0.6674,0.6674,0.6674,0,0.6802,0.6785,0.6786,0.6774,0.6756,0.6758,0.6739,0.6736,0.673,0.6717,0.6722,0.671,0.671,0.6698,0.6697,0.6678,0.6675,0.6673,0.6672,0.6672,0.6672,0.6666,0.6667,0.6673,0.6673,0.6673,0.6674,0,0.6769,0.6769,0.6749,0.6744,0.6742,0.6729,0.6724,0.6713,0.6711,0.6696,0.6692,0.6689,0.6676,0.6674,0.6657,0.6657,0.6634,0.6636,0.6637,0.6637,0.6623,0.6624,0.6578,0.6572,0.6613,0.6612,0.6612,0,0.6747,0.6734,0.6728,0.6721,0.6717,0.6705,0.6697,0.6699,0.6691,0.6682,0.6672,0.6659,0.6649,0.6627,0.6623,0.6611,0.6612,0.6597,0.661,0.661,0.6611,0.6611,0.661,0.6593,0.6593,0.6593,0.6592,0,0.6707,0.6709,0.6698,0.6688,0.668,0.6672,0.6665,0.6658,0.6659,0.665,0.6637,0.6629,0.6614,0.6601,0.659,0.6585,0.6588,0.6589,0.6585,0.6583,0.6584,0.6583,0.6629,0.6589,0.659,0.659,0.659,0.659,0.6678,0.6668,0.6662,0.6651,0.6646,0.6639,0.6629,0.6627,0.6617,0.6605,0.6607,0.6592,0.6585,0.6571,0.6565,0.6554,0.6559,0.6553,0.6551,0.6549,0.6548,0.6587,0.6552,0.6552,0.6552,0.6552,0.6552,0,0.6638,0.6636,0.6626,0.6616,0.6607,0.6614,0.6606,0.6598,0.6586,0.658,0.657,0.6556,0.6544,0.654,0.6528,0.652,0.6521,0.6517,0.6516,0.6515,0.6544,0.6549,0.6516,0.6516,0.6516,0.6516,0.6516,0.6516,0.6616,0.6599,0.66,0.658,0.6578,0.6564,0.656,0.6554,0.6549,0.6533,0.6523,0.6522,0.6517,0.6505,0.6495,0.6494,0.6489,0.6483,0.6483,0.651,0.6513,0.6517,0.6521,0.6482,0.6482,0.6455,0.6455,0.6455]},{"header":{"parameterUnit":"m.s-1","parameterCategory":1,"la1":30.2991,"la2":30.254,"lo1":-89.0895,"lo2":-89.0444,"dy":0.0017,"dx":0.0017,"nx":28,"ny":28,"refTime":"2025-01-07T03:00:00:Z","depth":0,"parameterNumber":3,"parameterNumberName":"V-component_of_WINDS"},"data":[0,0,0,0,0,0,0,0,0,0,0,0,0,0,0,0,0,0,0,0,0,0,0,0,0,0,0,0,0,0,0,0,0,0,0,0,0,0,0,0,0,0,0,0,0,0,0,0,0,0,0,0,0,0,0,0,0,0,-7.638,-7.6382,0,-7.6559,-7.6561,-7.6563,-7.6483,-7.6479,-7.6474,-7.647,-7.6648,-7.6657,-7.6665,0,0,0,0,0,0,0,0,0,0,0,0,0,-7.5964,-7.5972,-7.638,-7.6382,-7.6384,-7.6558,-7.6561,-7.6563,-7.6484,-7.6479,-7.6473,-7.6468,-7.6645,-7.6656,-7.6666,0,0,0,0,0,0,0,0,0,0,0,0,0,-7.6144,-7.5975,-7.6379,-7.6366,-7.6366,-7.6558,-7.6561,-7.6564,-7.6485,-7.6478,-7.6472,-7.6466,-7.6642,-7.6655,-7.6668,-7.6881,0,0,-7.6708,-7.6714,0,0,0,0,0,0,0,0,-7.6134,-7.6159,-7.6365,-7.6367,-7.6368,-7.6492,-7.6479,-7.667,-7.6487,-7.644,-7.647,-7.6463,-7.6601,-7.6617,-7.6665,-7.689,-7.6897,-7.6709,-7.6717,-7.6723,-7.6727,0,0,0,0,0,0,0,-7.6121,-7.6151,-7.645,-7.6368,-7.637,-7.6349,-7.6367,-7.6515,-7.6555,-7.6443,-7.6438,-7.6461,-7.66,-7.6653,-7.6669,-7.69,-7.6709,-7.6721,-7.6729,-7.6734,-7.7308,-7.7315,0,0,0,0,0,0,-7.611,-7.6141,-7.6444,-7.6456,-7.6232,-7.6362,-7.6382,-7.6459,-7.6553,-7.6561,-7.6466,-7.6456,-7.6633,-7.6653,-7.6675,-7.6931,-7.6723,-7.6735,-7.6743,-7.73,-7.7309,-7.7317,0,0,0,0,0,0,-7.6101,-7.6138,-7.6437,-7.6297,-7.6334,-7.6376,-7.6463,-7.6466,-7.6518,-7.6571,-7.6577,-7.6512,-7.6629,-7.6656,-7.6831,-7.6936,-7.6741,-7.6753,-7.7292,-7.7303,-7.7313,-7.7445,0,0,0,0,0,0,-7.609,-7.6135,-7.6218,-7.63,-7.6341,-7.6593,-7.6469,-7.6474,-7.6541,-7.653,-7.6616,-7.6623,-7.6626,-7.6811,-7.6844,-7.6951,-7.6764,-7.7282,-7.7297,-7.731,-7.7432,-7.7459,-7.7483,0,0,0,0,0,-7.6075,-7.6247,-7.6223,-7.626,-7.6446,-7.6599,-7.6623,-7.6623,-7.655,-7.6633,-7.6667,-7.6621,-7.6919,-7.683,-7.6866,-7.6978,-7.7276,-7.7293,-7.7309,-7.742,-7.7454,-7.7483,0,0,0,0,0,0,-7.6175,-7.6257,-7.6231,-7.6435,-7.6511,-7.6585,-7.669,-7.6659,-7.6756,-7.6741,-7.6736,-7.6756,-7.6937,-7.6975,-7.6874,-7.7189,-7.7086,-7.711,-7.7159,-7.7191,-7.7216,-7.7203,-7.6775,0,0,0,0,0,-7.6221,-7.634,-7.6404,-7.6578,-7.6618,-7.6648,-7.6714,-7.6708,-7.6785,-7.6817,-7.6863,-7.6938,-7.7049,-7.7122,-7.7226,-7.7436,-7.7453,-7.7531,-7.7557,-7.7578,-7.7599,-7.7712,-7.7747,-7.7371,-7.7371,-7.737,0,0,-7.6317,-7.6377,-7.6451,-7.66,-7.6658,-7.6779,-7.6675,-7.6808,-7.6897,-7.6836,-7.7005,-7.7041,-7.7125,-7.7318,-7.7405,-7.7355,-7.7706,-7.7599,-7.7615,-7.7625,-7.7733,-7.7768,-7.78,-7.7382,-7.738,-7.7378,0,0,-7.6554,-7.6611,-7.6762,-7.6823,-7.6912,-7.6931,-7.6967,-7.7047,-7.7069,-7.7239,-7.7195,-7.73,-7.7491,-7.7553,-7.7609,-7.7869,-7.7829,-7.7903,-7.8037,-7.8147,-7.8177,-7.8203,-7.8296,-7.8329,-7.7923,-7.7924,-7.7924,0,-7.6661,-7.6844,-7.6843,-7.698,-7.7046,-7.6998,-7.715,-7.7208,-7.7326,-7.7372,-7.7314,-7.7553,-7.7606,-7.7813,-7.7876,-7.7923,-7.7964,-7.7893,-7.8173,-7.82,-7.8224,-7.8312,-7.8347,-7.7932,-7.7931,-7.793,-7.793,0,-7.6972,-7.7099,-7.721,-7.7328,-7.7406,-7.755,-7.7569,-7.7648,-7.7635,-7.7659,-7.7832,-7.7893,-7.801,-7.8058,-7.8046,-7.8264,-7.823,-7.8173,-7.8069,-7.8268,-7.8351,-7.8385,-7.7944,-7.7941,-7.7939,-7.7937,0,0,-7.7278,-7.7393,-7.7434,-7.7487,-7.7582,-7.7679,-7.782,-7.7935,-7.8003,-7.8086,-7.8203,-7.8366,-7.8314,-7.8378,-7.8372,-7.8469,-7.8671,-7.84,-7.8402,-7.8448,-7.8913,-7.8956,-7.8995,-7.8645,-7.8651,-7.8657,-7.8906,0,-7.7522,-7.7771,-7.7773,-7.8002,-7.8119,-7.8074,-7.8196,-7.8267,-7.8293,-7.8395,-7.8423,-7.8539,-7.8461,-7.85,-7.8594,-7.8627,-7.8764,-7.8608,-7.8753,-7.8758,-7.8734,-7.9038,-7.9084,-7.9317,-7.8939,-7.8944,-7.8948,0,-7.784,-7.7935,-7.8176,-7.8254,-7.8303,-7.8414,-7.8519,-7.8618,-7.8696,-7.8708,-7.878,-7.8759,-7.8901,-7.8792,-7.8986,-7.8881,-7.8939,-7.8964,-7.8973,-7.8987,-7.8865,-7.906,-7.9391,-7.9426,-7.8999,-7.8995,-7.8991,0,-7.8039,-7.8227,-7.8395,-7.8442,-7.8537,-7.8615,-7.8658,-7.873,-7.88,-7.8891,-7.8936,-7.9042,-7.91,-7.9182,-7.919,-7.9111,-7.9386,-7.9278,-7.9399,-7.9399,-7.9459,-7.9455,-7.9804,-7.9497,-7.9496,-7.9496,-7.9495,0,-7.8312,-7.8461,-7.8486,-7.859,-7.8755,-7.8756,-7.8918,-7.8954,-7.9019,-7.9127,-7.9094,-7.9196,-7.92,-7.9304,-7.9311,-7.947,-7.9497,-7.9509,-7.9509,-7.9513,-7.9511,-7.9551,-7.9536,-7.9505,-7.9503,-7.9501,-7.9499,0,-7.8562,-7.8586,-7.8766,-7.8842,-7.8864,-7.8982,-7.9046,-7.9144,-7.9166,-7.9304,-7.9336,-7.9372,-7.9492,-7.9508,-7.9649,-7.9653,-7.9845,-7.9828,-7.982,-7.9817,-7.9937,-7.9926,-8.0324,-8.0376,-8.0035,-8.0038,-8.0041,0,-7.8735,-7.8849,-7.8937,-7.9008,-7.9056,-7.9171,-7.9241,-7.9246,-7.932,-7.9418,-7.9504,-7.9622,-7.9716,-7.9911,-7.9948,-8.0055,-8.004,-8.0172,-8.0056,-8.0055,-8.0042,-8.0035,-8.0046,-8.0195,-8.0198,-8.0201,-8.0204,0,-7.9039,-7.9045,-7.915,-7.9259,-7.9344,-7.943,-7.951,-7.9569,-7.9584,-7.9669,-7.9793,-7.9867,-8.0011,-8.0127,-8.0233,-8.0275,-8.0242,-8.024,-8.0274,-8.0279,-8.0269,-8.0276,-7.9881,-8.0231,-8.0228,-8.0226,-8.0225,-8.0224,-7.9257,-7.9356,-7.9433,-7.955,-7.9611,-7.9687,-7.9783,-7.9818,-7.9923,-8.0042,-8.0037,-8.0173,-8.0247,-8.0386,-8.0436,-8.0541,-8.0497,-8.0546,-8.0558,-8.057,-8.0582,-8.0253,-8.056,-8.0559,-8.0558,-8.0558,-8.0557,0,-7.9559,-7.9607,-7.9715,-7.9829,-7.9921,-7.9883,-7.997,-8.0049,-8.017,-8.0243,-8.0337,-8.0479,-8.0592,-8.0638,-8.0748,-8.0823,-8.0811,-8.0852,-8.0847,-8.0857,-8.0615,-8.0575,-8.086,-8.086,-8.086,-8.086,-8.086,-8.086,-7.9728,-7.9893,-7.9908,-8.0103,-8.0149,-8.0284,-8.0337,-8.0406,-8.0464,-8.0625,-8.0719,-8.0749,-8.0811,-8.0925,-8.1027,-8.1037,-8.1079,-8.1127,-8.1131,-8.0904,-8.0874,-8.0845,-8.0807,-8.1136,-8.1137,-8.1364,-8.1366,-8.1368]}]]